Dewpoint
41 39 37 38 38 41 41 34 23 33 37 28 29 29 31 36 36 37 36 34 30 29 28 27 27 28 30 31 29 28 30 28 27 29 31 30 28 26 24 17 18 19 18 11
41 40 37 37 38 41 41 33 32 35 34 28 29 31 32 36 34 34 34 30 30 30 28 25 27 28 31 30 29 27 28 25 24 24 26 30 28 28 26 23 23 20 14 12
40 40 38 37 38 40 38 32 26 31 32 33 32 31 32 33 37 36 35 32 31 30 29 30 27 30 31 30 33 32 28 24 21 17 19 27 27 28 26 25 22 21 21 18
41 40 38 36 38 39 38 33 29 34 29 32 33 34 34 33 33 35 35 32 32 29 27 29 29 30 30 33 32 30 27 25 26 27 28 28 27 28 27 25 24 20 20 22
41 39 38 36 37 39 36 34 33 35 33 34 34 35 35 34 34 35 33 32 32 31 30 31 28 30 29 27 30 28 28 27 25 24 26 28 27 28 29 28 27 25 25 25
41 39 39 37 36 39 34 37 38 36 32 32 32 31 33 34 35 35 37 34 32 31 32 33 33 32 32 31 29 28 27 26 23 20 24 24 21 25 28 28 29 28 26 27
41 39 38 39 35 39 36 37 37 33 28 31 31 33 35 36 37 34 37 36 33 35 37 35 34 34 34 33 32 29 27 26 25 21 21 13 19 26 28 28 27 29 29 29
39 41 39 38 37 36 36 37 38 34 29 30 32 32 34 34 36 37 37 38 39 39 32 30 28 28 28 32 35 32 29 28 26 20 20 20 29 31 28 29 32 29 29 30
39 40 40 38 39 37 36 35 39 35 31 29 33 33 35 34 33 33 36 38 39 34 30 26 23 22 24 24 30 34 32 28 23 25 19 14 24 32 35 36 32 36 30 34
39 39 40 39 39 39 37 35 38 34 32 32 34 33 33 39 35 33 35 37 35 33 27 24 23 24 26 24 23 27 29 29 25 25 23 22 24 28 34 28 31 36 32 30
39 39 40 39 40 39 37 35 37 35 33 33 34 35 35 36 39 35 36 31 32 31 26 24 25 26 26 25 25 27 26 25 24 24 24 17 24 30 31 31 32 32 30 33
39 38 38 38 38 38 39 34 37 40 34 32 36 34 35 37 37 38 39 34 35 34 30 30 31 28 29 26 24 29 25 26 24 25 22 24 25 31 33 32 29 28 32 35
38 37 37 38 38 39 40 37 36 35 33 30 31 31 36 37 35 37 37 39 39 37 35 32 31 28 30 26 26 28 29 30 27 27 27 28 29 29 30 30 30 30 35 35
38 37 37 38 37 38 40 38 38 35 32 27 31 38 38 43 40 39 39 42 41 40 39 34 32 28 31 28 30 29 30 30 29 28 29 30 30 31 35 36 36 36 35 34
38 38 36 37 37 38 40 40 39 37 29 28 30 33 37 42 41 40 40 43 41 40 38 36 33 35 34 33 33 31 32 30 29 28 30 30 31 33 35 36 36 35 34 34
38 37 34 37 37 38 38 33 37 39 36 31 26 38 39 44 45 44 44 44 42 41 39 37 38 36 33 31 30 31 33 36 35 32 36 36 37 36 36 34 34 34 34 35
38 34 35 37 39 42 34 31 38 40 38 31 28 32 38 44 45 44 44 45 43 42 39 38 37 37 37 34 31 31 35 34 33 35 35 36 36 35 35 34 33 33 33 34
38 37 37 38 41 42 38 40 41 39 36 33 28 32 36 44 40 39 43 40 41 40 38 38 36 38 37 33 35 32 32 32 33 34 34 34 35 35 36 34 32 32 32 32
39 38 40 41 37 35 35 40 41 41 35 29 31 31 30 42 40 40 40 40 35 39 36 35 37 35 32 33 32 31 31 32 32 34 34 34 34 34 35 36 34 33 33 32
35 41 36 32 33 40 38 37 33 32 33 33 30 37 34 39 38 37 37 38 34 31 34 38 34 32 33 31 30 31 30 31 34 33 32 32 33 33 34 34 35 36 35 33
31 34 32 37 41 37 33 30 29 30 29 33 34 34 35 39 35 34 38 33 33 29 31 32 31 31 32 29 29 29 30 30 34 34 34 33 32 32 33 34 35 36 36 32
32 31 35 36 35 31 28 28 31 30 29 36 35 34 35 38 40 36 35 32 31 26 34 30 28 30 28 28 28 28 29 31 33 33 33 32 32 32 35 35 35 36 34 30
36 34 31 30 31 26 27 26 29 30 34 35 36 34 37 38 39 34 32 29 29 33 29 27 28 28 28 27 28 29 31 32 32 32 32 32 32 33 35 32 29 29 28 28
33 30 26 28 27 29 31 30 31 32 34 35 36 35 35 37 34 33 30 32 31 26 25 26 29 28 27 29 29 29 29 30 30 30 30 31 31 32 32 33 32 31 28 28
30 31 25 28 31 33 32 32 32 34 35 35 34 34 34 33 32 32 32 29 26 27 27 30 28 27 28 28 29 28 28 28 28 29 29 29 29 30 31 32 32 31 31 30
30 30 27 30 29 30 32 32 32 35 36 35 33 31 30 29 31 29 28 27 26 26 29 27 28 28 27 26 27 27 26 25 27 28 28 28 26 25 28 30 30 30 30 29
24 26 31 30 29 29 31 31 32 34 34 31 31 28 26 30 28 27 29 28 29 28 26 25 26 25 23 24 23 22 22 24 26 27 28 28 27 26 25 24 23 24 29 30
Wind_Speed
20 25 29 30 31 32 8 5 4 7 9 5 2 5 9 5 5 3 3 2 9 6 4 6 4 3 1 1 2 5 2 7 6 3 1 3 3 4 4 4 5 2 2 1
21 23 28 30 31 30 6 4 5 5 4 8 8 7 3 2 7 7 6 4 4 2 3 5 4 3 5 5 4 4 5 4 7 1 2 3 3 4 4 7 3 5 4 1
21 21 26 30 31 31 2 3 7 6 7 2 6 8 7 8 2 3 2 4 4 4 7 9 5 4 5 5 6 9 6 4 3 5 3 5 5 9 11 5 4 5 6 2
19 19 23 28 31 31 3 6 4 2 8 8 15 4 5 8 8 8 12 7 9 3 4 4 5 4 3 5 6 4 4 5 4 5 5 3 4 8 15 15 7 8 1 6
17 18 20 24 29 26 6 4 5 4 7 13 11 11 10 12 7 7 7 9 10 8 5 2 6 7 3 2 4 4 4 3 2 2 3 4 5 7 14 12 7 14 11 22
14 15 16 19 23 16 5 5 3 3 7 10 8 7 10 6 5 5 8 3 9 17 6 1 5 4 6 7 5 4 3 5 2 1 2 1 5 12 13 6 5 11 14 13
15 12 14 14 16 9 3 3 3 4 6 9 10 11 10 10 10 4 5 10 6 2 4 1 5 19 17 17 12 3 7 5 2 1 2 1 1 2 9 17 10 18 9 13
14 12 11 12 12 12 6 4 5 4 6 11 10 18 9 8 6 6 6 7 3 4 2 3 4 3 4 7 11 10 3 5 3 1 2 5 2 2 6 6 3 9 14 11
14 13 12 11 10 10 5 2 5 3 5 2 7 9 11 4 6 4 3 3 3 3 3 2 2 2 3 2 2 7 10 9 3 2 1 2 2 3 1 2 2 3 5 7
14 13 12 11 10 7 2 3 2 2 5 4 3 3 6 6 3 3 3 6 6 4 2 2 1 2 2 5 5 3 2 2 3 2 2 6 7 4 3 3 2 4 3 11
14 14 14 10 12 10 3 4 2 0 5 10 8 5 5 7 3 4 5 2 3 3 3 1 1 2 2 2 3 4 8 7 4 3 2 1 3 1 2 2 1 4 7 6
14 14 14 13 11 11 4 4 2 2 5 8 6 18 20 17 13 7 4 1 1 1 3 1 2 2 2 3 2 1 4 6 3 9 5 3 2 4 2 4 9 8 7 6
14 16 15 14 12 12 4 5 3 1 5 9 5 12 8 16 24 14 4 1 0 0 2 4 2 1 3 3 3 3 4 5 3 2 1 8 7 8 8 5 9 8 5 5
14 17 16 13 14 14 10 3 5 4 3 5 7 7 10 6 11 18 17 3 1 1 2 1 2 2 5 3 2 4 3 7 5 6 12 8 3 1 5 3 3 3 2 3
15 17 15 15 15 16 9 6 9 11 5 4 9 17 8 9 11 13 14 11 4 2 2 4 4 2 3 0 1 6 7 6 7 7 1 2 12 6 11 9 7 6 6 5
16 17 16 17 16 12 1 4 5 10 8 2 6 7 4 5 11 11 11 9 5 3 3 3 3 3 5 4 4 5 5 2 2 4 6 9 13 1 11 7 6 6 5 3
17 17 17 18 21 15 5 4 2 11 8 3 5 4 4 8 6 6 4 5 3 3 2 4 3 5 7 4 8 6 6 2 4 2 8 1 3 6 15 8 7 5 3 3
18 19 19 20 14 7 7 7 13 9 3 3 5 4 2 6 5 5 4 4 3 3 3 1 3 2 5 7 5 4 1 6 4 2 5 8 14 12 9 5 5 6 7 5
20 22 14 3 1 3 2 10 16 9 4 4 4 2 2 3 4 4 3 3 5 3 4 4 6 7 9 4 5 2 1 3 8 12 10 8 6 11 9 8 8 8 11 7
19 3 1 2 2 8 5 4 7 5 6 6 5 4 3 6 5 4 5 4 3 3 5 4 5 5 4 4 2 1 3 5 7 9 6 8 11 11 13 13 14 13 13 9
6 5 2 6 4 3 3 4 6 7 5 6 6 6 3 3 3 3 3 3 3 3 3 3 4 4 4 3 1 3 4 5 6 8 10 10 12 15 15 17 15 13 13 12
5 7 5 3 3 4 3 5 4 7 5 5 5 6 8 2 2 3 3 3 4 4 2 2 3 2 3 2 3 6 6 5 8 8 9 10 11 12 13 13 14 12 8 7
3 3 3 3 3 4 4 3 4 3 2 1 1 2 4 2 2 3 4 4 5 4 3 3 2 5 3 4 4 4 5 7 7 8 8 9 10 9 8 9 7 4 2 5
3 3 6 5 4 5 3 3 3 2 2 1 2 3 2 2 3 3 2 3 2 2 3 4 6 6 5 3 4 5 7 9 10 10 10 10 10 10 9 9 7 4 1 2
3 3 5 3 5 4 3 4 4 2 3 1 1 3 1 1 2 2 1 2 4 5 3 3 9 8 6 4 4 7 8 9 9 9 10 11 11 10 9 10 9 7 3 1
3 4 4 5 5 5 5 4 3 4 2 0 2 2 1 3 2 2 5 2 4 1 2 6 10 8 5 3 4 5 6 7 8 10 10 10 11 10 8 7 10 8 6 3
3 5 4 6 7 7 4 4 4 8 3 1 1 2 4 0 2 3 4 3 2 2 5 6 6 7 5 4 4 5 6 7 7 8 9 10 10 8 10 11 10 6 6 5
Wind_Direction
352 351 350 349 348 348 13 349 9 329 356 49 22 353 309 298 312 215 287 354 62 67 86 57 77 108 180 245 270 61 76 114 124 129 52 134 97 158 150 180 205 103 146 261
353 353 353 349 349 351 328 2 306 322 8 31 9 326 314 269 17 10 16 47 73 77 76 94 56 69 23 14 32 138 158 91 111 60 50 61 186 178 140 113 112 183 176 237
352 354 356 350 350 350 30 21 13 335 18 45 342 347 352 353 330 337 338 66 92 95 50 48 121 86 25 359 75 76 95 80 123 151 136 143 184 183 176 153 180 169 235 341
349 356 358 355 352 349 349 22 30 2 332 335 331 296 320 343 15 359 21 45 39 82 89 66 98 93 108 49 358 46 76 98 89 86 117 140 187 191 191 204 185 195 248 220
353 356 359 2 359 352 52 40 360 342 298 307 333 10 10 31 17 22 6 73 47 67 93 81 166 137 141 165 46 59 27 108 102 95 71 226 238 215 205 218 226 246 270 285
344 351 357 5 8 13 14 345 314 299 301 339 360 354 323 355 353 56 41 55 78 65 34 19 103 115 102 128 125 111 85 128 90 158 341 343 281 238 198 203 211 216 235 245
344 345 353 3 11 40 348 315 310 339 300 348 344 326 334 15 30 83 15 39 84 76 297 254 74 74 74 70 50 83 124 106 94 202 17 217 210 136 186 215 239 216 243 267
339 342 345 357 3 19 13 318 350 336 308 327 323 343 344 12 20 40 49 28 351 312 27 84 82 35 65 39 38 41 95 117 107 169 235 301 102 160 161 174 56 200 217 253
339 341 340 340 347 4 22 320 334 334 314 259 325 321 306 346 355 14 9 347 341 36 67 80 110 142 112 153 97 35 60 84 111 145 270 162 163 162 190 200 156 77 206 319
331 334 335 331 329 346 56 301 14 318 282 273 332 311 318 319 339 303 324 343 5 26 51 81 118 132 159 161 181 172 67 51 188 213 273 281 246 282 166 175 226 297 314 324
325 328 333 327 324 320 157 275 204 55 297 293 264 269 281 328 336 6 328 324 12 32 62 82 138 134 176 133 162 176 182 164 186 179 230 291 189 163 196 149 330 306 309 310
321 322 319 317 313 318 153 275 228 215 238 264 290 272 253 241 252 295 317 271 299 199 95 140 134 149 154 163 223 216 215 198 193 194 217 250 247 263 263 272 285 286 286 301
316 316 315 320 319 319 308 236 227 226 279 281 258 259 264 229 232 220 249 244 50 233 167 148 142 123 154 203 237 209 232 189 230 279 249 239 273 287 276 287 261 272 265 297
316 313 313 320 316 308 303 214 205 186 257 280 285 299 275 270 183 194 208 281 280 145 169 189 203 254 193 224 213 223 227 164 205 252 286 292 220 250 343 329 281 279 288 273
315 311 316 309 306 304 308 239 213 198 197 293 291 307 259 213 182 189 203 229 244 232 229 216 223 174 169 196 219 244 194 210 203 246 236 275 287 352 333 325 328 335 335 319
310 311 311 302 300 304 37 301 221 198 172 274 285 307 256 182 194 192 200 210 217 225 248 233 220 188 172 224 247 232 200 178 236 268 307 276 286 295 18 342 340 334 314 306
312 311 307 312 296 270 174 222 318 178 130 235 274 255 226 191 167 182 170 186 185 217 266 237 214 211 192 235 226 209 180 222 289 331 340 243 18 326 326 318 316 316 314 325
310 311 308 302 308 119 169 189 140 150 102 261 262 259 239 193 156 155 178 144 162 212 236 192 241 175 214 246 211 163 252 318 277 358 351 281 291 305 315 294 306 305 303 300
314 311 304 296 190 202 224 169 164 158 205 273 250 250 200 166 172 130 143 161 209 193 238 213 188 193 224 210 177 198 357 306 299 314 305 297 315 320 322 325 303 287 291 277
314 303 50 245 256 130 96 165 180 171 200 228 256 281 224 189 154 153 174 173 213 229 223 160 221 243 141 137 85 5 319 312 313 310 309 306 309 313 308 300 295 281 276 269
7 347 282 314 299 196 201 206 190 189 226 214 231 225 215 199 146 143 184 198 184 235 211 225 231 239 164 91 24 354 340 318 308 293 283 287 285 294 296 295 289 279 273 247
286 289 287 272 235 220 230 203 201 204 229 198 202 210 193 171 128 155 172 214 178 246 158 223 251 156 117 47 2 351 353 342 325 320 311 312 308 303 291 285 289 286 261 210
280 209 252 215 214 240 243 223 199 212 222 299 127 116 133 145 180 147 181 205 225 139 206 234 234 147 97 43 22 23 19 5 353 346 343 334 333 338 343 331 341 338 171 173
271 265 281 220 211 247 277 293 295 301 313 15 98 121 114 117 173 170 223 203 165 235 231 235 167 156 127 78 46 43 17 13 6 360 355 354 353 347 358 4 4 355 358 167
274 266 258 264 336 286 300 300 290 310 310 8 103 83 114 149 213 200 267 222 245 225 235 174 149 140 130 90 59 43 29 14 6 356 357 359 357 2 3 5 5 14 8 232
243 248 272 287 294 327 336 323 312 342 331 39 40 117 139 230 211 208 217 236 237 252 209 152 143 137 119 95 58 31 17 7 0 2 3 4 2 359 348 358 10 5 5 322
249 257 259 267 274 283 315 332 335 335 305 225 172 197 209 106 220 238 203 225 273 208 152 145 148 143 125 91 58 29 16 11 4 357 360 2 359 5 20 18 2 356 345 336